[[{"header":{"parameterUnit":"m.s-1","parameterCategory":2,"la1":30.2991,"la2":30.254,"lo1":-89.0895,"lo2":-89.0444,"dy":0.0017,"dx":0.0017,"nx":28,"ny":28,"refTime":"2025-06-08T21:00:00:Z","depth":"0","parameterNumber":2,"parameterNumberName":"U-component_of_CURRENTS"},"data":[0,0,0,0,0,0,0,0,0,0,0,0,0,0,0,0,0,0,0,0,0,0,0,0,0,0,0,0,0,0,0,0,0,0,0,0,0,0,0,0,0,0,0,0,0,0,0,0,0,0,0,0,0,0,0,0,0,0,0.3272,0.3274,0,0.3309,0.3308,0.3307,0.3201,0.32,0.3198,0.3197,0.3197,0.3199,0.32,0,0,0,0,0,0,0,0,0,0,0,0,0,0.2934,0.294,0.3272,0.3274,0.3276,0.3309,0.3308,0.3307,0.3201,0.32,0.3198,0.3196,0.3197,0.3198,0.32,0,0,0,0,0,0,0,0,0,0,0,0,0,0.3019,0.2942,0.3271,0.3242,0.3242,0.331,0.3308,0.3306,0.3202,0.3199,0.3197,0.3195,0.3196,0.3198,0.32,0.3257,0,0,0.3207,0.3208,0,0,0,0,0,0,0,0,0.3014,0.3029,0.3244,0.3245,0.3244,0.3266,0.319,0.3295,0.3202,0.3196,0.3197,0.3194,0.3231,0.323,0.3215,0.3257,0.3257,0.3207,0.3208,0.3209,0.321,0,0,0,0,0,0,0,0.3009,0.3026,0.3266,0.3248,0.3248,0.3169,0.3178,0.3207,0.3209,0.3196,0.3194,0.323,0.3228,0.3213,0.3214,0.3257,0.3207,0.3209,0.321,0.3211,0.3429,0.3434,0,0,0,0,0,0,0.3057,0.3023,0.3266,0.327,0.3144,0.3179,0.3188,0.3245,0.321,0.3209,0.3232,0.3225,0.321,0.3212,0.3214,0.3301,0.3209,0.3211,0.3212,0.3425,0.343,0.3435,0,0,0,0,0,0,0.305,0.3079,0.3265,0.316,0.3181,0.3191,0.3253,0.3247,0.3235,0.3241,0.3234,0.3228,0.3209,0.3211,0.3254,0.3299,0.3212,0.3214,0.3419,0.3427,0.3433,0.3462,0,0,0,0,0,0,0.304,0.3077,0.3123,0.3165,0.3189,0.3349,0.3257,0.325,0.327,0.3261,0.3237,0.3233,0.3207,0.3252,0.3257,0.3301,0.3215,0.3414,0.3423,0.3431,0.3455,0.3469,0.3481,0,0,0,0,0,0.3028,0.317,0.3125,0.3155,0.3258,0.3355,0.3359,0.3341,0.3273,0.3307,0.3269,0.3234,0.3311,0.3256,0.3261,0.3307,0.3409,0.342,0.343,0.3449,0.3466,0.348,0,0,0,0,0,0,0.3082,0.3174,0.3127,0.3291,0.3318,0.3345,0.3407,0.3355,0.3346,0.3333,0.3275,0.3274,0.333,0.3339,0.328,0.3408,0.3363,0.3375,0.3377,0.3393,0.3405,0.3445,0.3217,0,0,0,0,0,0.3107,0.3224,0.3256,0.339,0.3406,0.3381,0.3411,0.3394,0.3405,0.3394,0.3364,0.3363,0.3382,0.3398,0.3423,0.349,0.3485,0.3537,0.3549,0.3559,0.3604,0.3633,0.3651,0.3469,0.3469,0.3469,0,0,0.3174,0.3242,0.3307,0.3405,0.3416,0.3455,0.3391,0.3476,0.3484,0.3405,0.3414,0.3404,0.3412,0.3471,0.3501,0.3478,0.3605,0.3572,0.3579,0.362,0.3646,0.3662,0.3677,0.3476,0.3475,0.3474,0,0,0.3355,0.3407,0.3519,0.3537,0.3587,0.357,0.3592,0.3597,0.3574,0.3592,0.3536,0.3576,0.3575,0.3608,0.3616,0.3739,0.3666,0.3732,0.3823,0.3849,0.3863,0.3875,0.3848,0.3857,0.3741,0.3741,0.3741,0,0.3378,0.3524,0.3569,0.3639,0.3646,0.3614,0.3653,0.3662,0.367,0.3652,0.3616,0.3635,0.3657,0.3723,0.3768,0.3768,0.3731,0.3739,0.3859,0.3871,0.3883,0.3853,0.3863,0.3743,0.3743,0.3743,0.3743,0,0.3608,0.3667,0.375,0.3786,0.3815,0.3876,0.3859,0.3866,0.3805,0.3776,0.381,0.3833,0.3843,0.3865,0.3849,0.3952,0.3877,0.3854,0.3798,0.3902,0.3864,0.3874,0.3747,0.3746,0.3746,0.3745,0,0,0.3686,0.3856,0.385,0.383,0.3866,0.3896,0.394,0.3932,0.3914,0.3935,0.392,0.401,0.3992,0.4014,0.401,0.4063,0.4116,0.3997,0.3996,0.3932,0.4106,0.3791,0.377,0.4066,0.4069,0.4071,0.4027,0,0.3762,0.3919,0.397,0.4004,0.4028,0.399,0.4007,0.4008,0.3985,0.398,0.4026,0.403,0.4054,0.4043,0.4117,0.411,0.415,0.4128,0.4053,0.4052,0.3727,0.3776,0.3671,0.3599,0.4036,0.4038,0.4039,0,0.3872,0.3944,0.4043,0.4024,0.4022,0.4037,0.3989,0.4003,0.4023,0.4007,0.4055,0.4053,0.4166,0.4151,0.4239,0.4195,0.4184,0.418,0.4177,0.3891,0.3756,0.3583,0.36,0.3565,0.4053,0.4052,0.4051,0,0.3855,0.3931,0.4001,0.4007,0.4039,0.4024,0.3998,0.4003,0.3969,0.4026,0.4001,0.4116,0.4112,0.4193,0.4175,0.4208,0.4195,0.4236,0.3949,0.3924,0.3835,0.3794,0.3786,0.4309,0.4309,0.4309,0.431,0,0.3892,0.3905,0.399,0.4016,0.3985,0.4001,0.3953,0.3959,0.395,0.3905,0.401,0.3986,0.4113,0.4093,0.4157,0.4022,0.4174,0.3975,0.3901,0.3833,0.3795,0.3756,0.3703,0.4308,0.4308,0.4308,0.4309,0,0.389,0.3975,0.3998,0.4019,0.3998,0.3969,0.3879,0.3835,0.3858,0.381,0.382,0.386,0.382,0.3866,0.3919,0.3897,0.3738,0.3781,0.3642,0.355,0.3252,0.3202,0.2927,0.2874,0.3524,0.3516,0.351,0,0.3938,0.3974,0.3979,0.3951,0.3956,0.3894,0.3823,0.3794,0.3734,0.3706,0.3665,0.3609,0.352,0.3428,0.3396,0.3363,0.3375,0.3213,0.3299,0.3207,0.3104,0.3002,0.2979,0.321,0.3202,0.3195,0.3189,0,0.3962,0.3968,0.3991,0.3913,0.3845,0.3742,0.3643,0.357,0.3518,0.3474,0.3348,0.3277,0.3137,0.2996,0.2873,0.289,0.3037,0.3055,0.3065,0.2921,0.2719,0.2639,0.3236,0.3126,0.3133,0.3137,0.3141,0.3143,0.3947,0.3931,0.3928,0.3817,0.3734,0.356,0.3397,0.3299,0.3149,0.2974,0.3023,0.284,0.2779,0.2581,0.2528,0.2419,0.2468,0.2471,0.2439,0.2364,0.2233,0.2602,0.2314,0.2315,0.2317,0.2318,0.2319,0,0.3862,0.3849,0.3794,0.3636,0.3461,0.3448,0.3232,0.3027,0.2779,0.2694,0.2533,0.2396,0.2227,0.2202,0.21,0.1955,0.1967,0.189,0.19,0.1936,0.2399,0.2311,0.1878,0.1878,0.1878,0.1878,0.1878,0.1878,0.3839,0.3755,0.3692,0.3386,0.3251,0.2903,0.2737,0.2509,0.2368,0.2096,0.1973,0.1938,0.2003,0.185,0.1717,0.167,0.1633,0.1366,0.1428,0.194,0.2001,0.2059,0.1975,0.1478,0.1478,0.1021,0.1016,0.1013]},{"header":{"parameterUnit":"m.s-1","parameterCategory":2,"la1":30.2991,"la2":30.254,"lo1":-89.0895,"lo2":-89.0444,"dy":0.0017,"dx":0.0017,"nx":28,"ny":28,"refTime":"2025-06-08T21:00:00:Z","depth":"0","parameterNumber":3,"parameterNumberName":"V-component_of_CURRENTS"},"data":[0,0,0,0,0,0,0,0,0,0,0,0,0,0,0,0,0,0,0,0,0,0,0,0,0,0,0,0,0,0,0,0,0,0,0,0,0,0,0,0,0,0,0,0,0,0,0,0,0,0,0,0,0,0,0,0,0,0,0.059,0.0592,0,0.0784,0.0786,0.0788,0.0827,0.0826,0.0825,0.0823,0.0974,0.0979,0.0984,0,0,0,0,0,0,0,0,0,0,0,0,0,0.0414,0.0415,0.0589,0.0592,0.0595,0.0784,0.0786,0.0789,0.0828,0.0826,0.0824,0.0823,0.0972,0.0978,0.0984,0,0,0,0,0,0,0,0,0,0,0,0,0,0.0535,0.0416,0.0589,0.0638,0.0645,0.0783,0.0786,0.0789,0.0828,0.0826,0.0824,0.0822,0.097,0.0977,0.0985,0.1074,0,0,0.1009,0.1013,0,0,0,0,0,0,0,0,0.0528,0.0541,0.0628,0.0635,0.0642,0.0781,0.078,0.0883,0.0828,0.0756,0.0823,0.0821,0.0908,0.0921,0.096,0.1081,0.1087,0.101,0.1015,0.1018,0.102,0,0,0,0,0,0,0,0.0519,0.0534,0.0665,0.0631,0.064,0.0706,0.0719,0.08,0.0839,0.0763,0.0766,0.0791,0.0911,0.0952,0.0963,0.109,0.101,0.1017,0.1022,0.1025,0.1272,0.1274,0,0,0,0,0,0,0.0493,0.0525,0.0659,0.0671,0.0581,0.071,0.0725,0.0737,0.0839,0.0854,0.0793,0.0793,0.094,0.0954,0.0969,0.1084,0.1018,0.1025,0.103,0.127,0.1273,0.1275,0,0,0,0,0,0,0.0488,0.0502,0.0651,0.0605,0.0628,0.0714,0.0728,0.0742,0.0783,0.0863,0.0876,0.0819,0.0939,0.0958,0.1048,0.1089,0.1029,0.1036,0.1268,0.1271,0.1274,0.1311,0,0,0,0,0,0,0.0482,0.0499,0.0503,0.0602,0.063,0.0748,0.0731,0.0747,0.0803,0.0804,0.0891,0.0902,0.0939,0.1037,0.1056,0.1099,0.1042,0.1266,0.1269,0.1273,0.1307,0.1314,0.1321,0,0,0,0,0,0.0475,0.0509,0.0502,0.0519,0.063,0.075,0.0772,0.0825,0.0806,0.0848,0.0893,0.0899,0.1071,0.1046,0.1068,0.1113,0.1264,0.1268,0.1272,0.1304,0.1313,0.1321,0,0,0,0,0,0,0.0452,0.0519,0.0513,0.0566,0.0649,0.0757,0.0811,0.083,0.0902,0.0899,0.0941,0.0959,0.1052,0.108,0.1049,0.1192,0.1163,0.1172,0.118,0.1189,0.1195,0.1234,0.1049,0,0,0,0,0,0.0441,0.0482,0.0554,0.0608,0.0639,0.0716,0.0769,0.0807,0.0884,0.0912,0.0967,0.1024,0.1092,0.1133,0.1202,0.1294,0.1285,0.1331,0.1338,0.1344,0.139,0.1396,0.1408,0.1288,0.1288,0.1288,0,0,0.0458,0.0498,0.0524,0.0606,0.067,0.076,0.0744,0.084,0.0918,0.0921,0.1034,0.106,0.1121,0.1219,0.1261,0.1245,0.1362,0.1349,0.1353,0.1398,0.1402,0.1413,0.1423,0.1291,0.1291,0.129,0,0,0.0538,0.0534,0.0598,0.0659,0.0751,0.0806,0.0827,0.0928,0.0966,0.107,0.1083,0.1143,0.1245,0.1307,0.1345,0.1438,0.1398,0.1431,0.1507,0.151,0.152,0.1529,0.148,0.1485,0.1434,0.1434,0.1434,0,0.0542,0.0625,0.0645,0.0725,0.079,0.0823,0.092,0.0983,0.1102,0.1151,0.111,0.1267,0.1302,0.1434,0.1451,0.1459,0.1421,0.1466,0.1518,0.1527,0.1535,0.1484,0.1488,0.1436,0.1436,0.1436,0.1436,0,0.0685,0.0734,0.0787,0.0882,0.0957,0.105,0.1124,0.1195,0.1216,0.1274,0.1383,0.142,0.1515,0.1513,0.1513,0.1602,0.1538,0.152,0.1492,0.1549,0.1491,0.1495,0.144,0.1439,0.1438,0.1438,0,0,0.0719,0.0851,0.0866,0.0918,0.1036,0.1117,0.1241,0.1368,0.1449,0.1507,0.1611,0.1693,0.1683,0.1727,0.1718,0.1715,0.1707,0.1637,0.1635,0.158,0.166,0.163,0.1629,0.1671,0.1673,0.1675,0.1576,0,0.0815,0.0965,0.1021,0.1174,0.1249,0.1311,0.1427,0.1539,0.1603,0.1707,0.1735,0.182,0.1771,0.1788,0.1794,0.1746,0.1727,0.1734,0.1625,0.1622,0.1581,0.1639,0.159,0.1501,0.1579,0.158,0.158,0,0.0933,0.1007,0.1157,0.1289,0.133,0.1427,0.1592,0.1699,0.184,0.1882,0.1967,0.1979,0.2038,0.1946,0.1914,0.1904,0.1804,0.1733,0.1727,0.1707,0.1602,0.147,0.1505,0.1555,0.1585,0.1585,0.1584,0,0.0951,0.1103,0.1216,0.1265,0.1424,0.1502,0.1593,0.175,0.1841,0.1984,0.2027,0.2116,0.211,0.2058,0.1935,0.1911,0.1842,0.1792,0.1672,0.1664,0.1618,0.1605,0.1696,0.1762,0.1762,0.1762,0.1763,0,0.1033,0.1118,0.1219,0.128,0.1414,0.1513,0.167,0.1777,0.1918,0.2017,0.2095,0.2145,0.2124,0.2085,0.198,0.1848,0.188,0.1717,0.1665,0.1623,0.1612,0.165,0.1653,0.1758,0.1759,0.176,0.1761,0,0.1056,0.1133,0.1246,0.138,0.1428,0.1517,0.169,0.1801,0.1908,0.203,0.2064,0.215,0.2088,0.2044,0.1936,0.1874,0.1769,0.1701,0.1635,0.1581,0.1544,0.1548,0.1528,0.1599,0.1579,0.1578,0.1577,0,0.109,0.1142,0.1277,0.1348,0.1411,0.1541,0.1645,0.1791,0.1888,0.201,0.2054,0.205,0.2039,0.191,0.1796,0.1652,0.1679,0.1556,0.1547,0.158,0.1544,0.1518,0.1581,0.1456,0.1454,0.1453,0.1452,0,0.1117,0.1152,0.1238,0.1364,0.1472,0.1595,0.1724,0.1787,0.193,0.1994,0.2031,0.2021,0.1892,0.1767,0.1626,0.1531,0.1606,0.1523,0.1589,0.1514,0.1461,0.149,0.1448,0.1439,0.1441,0.1442,0.1442,0.1443,0.1119,0.1172,0.1272,0.14,0.1514,0.1623,0.1685,0.1785,0.188,0.1933,0.195,0.1924,0.184,0.1624,0.1517,0.1428,0.1431,0.1419,0.1426,0.1402,0.149,0.1418,0.1344,0.1345,0.1345,0.1346,0.1346,0,0.1123,0.1204,0.1311,0.1456,0.1548,0.1618,0.1729,0.1749,0.1787,0.1869,0.1857,0.1879,0.169,0.1601,0.1442,0.1383,0.1371,0.1392,0.1373,0.1453,0.1405,0.1428,0.1334,0.1334,0.1334,0.1333,0.1333,0.1333,0.1152,0.1243,0.1303,0.1451,0.1538,0.1604,0.1638,0.1643,0.1697,0.1768,0.1848,0.1921,0.2026,0.1577,0.1443,0.1417,0.151,0.1366,0.1505,0.1486,0.149,0.1495,0.1524,0.1451,0.1451,0.1555,0.1555,0.1556]}],[{"header":{"parameterUnit":"m.s-1","parameterCategory":2,"la1":30.2991,"la2":30.254,"lo1":-89.0895,"lo2":-89.0444,"dy":0.0017,"dx":0.0017,"nx":28,"ny":28,"refTime":"2025-06-08T21:00:00:Z","depth":"2","parameterNumber":2,"parameterNumberName":"U-component_of_CURRENTS"},"data":[0,0,0,0,0,0,0,0,0,0,0,0,0,0,0,0,0,0,0,0,0,0,0,0,0,0,0,0,0,0,0,0,0,0,0,0,0,0,0,0,0,0,0,0,0,0,0,0,0,0,0,0,0,0,0,0,0,0,0.288,0.2884,0,0.3081,0.3081,0.3081,0.3078,0.3078,0.3077,0.3077,0.3128,0.313,0.3131,0,0,0,0,0,0,0,0,0,0,0,0,0,0.2571,0.2574,0.2879,0.2884,0.2889,0.3081,0.3081,0.3081,0.3078,0.3078,0.3077,0.3077,0.3128,0.313,0.3132,0,0,0,0,0,0,0,0,0,0,0,0,0,0.2706,0.2575,0.2878,0.2931,0.294,0.3081,0.3081,0.3081,0.3078,0.3078,0.3077,0.3077,0.3127,0.313,0.3132,0.3152,0,0,0.3139,0.314,0,0,0,0,0,0,0,0,0.2698,0.2713,0.2918,0.2928,0.2938,0.3078,0.2994,0.3107,0.3078,0.2996,0.3077,0.3077,0.3116,0.3119,0.3121,0.3154,0.3157,0.3139,0.3141,0.3142,0.3142,0,0,0,0,0,0,0,0.2688,0.2706,0.2931,0.2924,0.2937,0.2975,0.2989,0.3014,0.3031,0.3003,0.301,0.3077,0.3116,0.3118,0.3122,0.3157,0.3139,0.3141,0.3143,0.3144,0.3371,0.3376,0,0,0,0,0,0,0.2716,0.2696,0.2925,0.294,0.2846,0.2982,0.2997,0.3011,0.3034,0.3047,0.3077,0.3077,0.3115,0.3119,0.3124,0.3234,0.3142,0.3144,0.3145,0.3367,0.3372,0.3377,0,0,0,0,0,0,0.2707,0.2732,0.2918,0.2848,0.2878,0.299,0.3004,0.3016,0.3031,0.3097,0.3101,0.3086,0.3114,0.3121,0.3176,0.3233,0.3145,0.3147,0.3361,0.3368,0.3375,0.3401,0,0,0,0,0,0,0.2696,0.2725,0.2765,0.2848,0.2884,0.3016,0.3008,0.3021,0.3086,0.3086,0.3106,0.311,0.3115,0.3173,0.3179,0.3234,0.3149,0.3355,0.3364,0.3373,0.3394,0.3408,0.3419,0,0,0,0,0,0.2683,0.2778,0.2763,0.2796,0.2925,0.3021,0.3038,0.31,0.3087,0.3103,0.3128,0.3109,0.3234,0.3177,0.3183,0.3241,0.3351,0.3362,0.3372,0.3388,0.3405,0.3419,0,0,0,0,0,0,0.2735,0.2791,0.2777,0.2898,0.295,0.3031,0.3088,0.3105,0.3134,0.3157,0.3141,0.3149,0.3226,0.3243,0.3181,0.3345,0.3301,0.3313,0.3312,0.3328,0.3341,0.3382,0.3151,0,0,0,0,0,0.2747,0.2826,0.2849,0.2985,0.2953,0.2998,0.3054,0.3111,0.316,0.3171,0.3189,0.3236,0.3276,0.3304,0.3352,0.342,0.3405,0.3478,0.3491,0.3501,0.3548,0.3554,0.3569,0.3412,0.3412,0.3412,0,0,0.2802,0.289,0.2918,0.3002,0.3011,0.3049,0.3021,0.3138,0.3219,0.3177,0.3264,0.3273,0.3305,0.3391,0.3431,0.3408,0.3534,0.3514,0.3521,0.3564,0.3567,0.3581,0.3594,0.3419,0.3418,0.3416,0,0,0.2958,0.2987,0.3021,0.3063,0.3153,0.3179,0.3198,0.3249,0.3271,0.336,0.3362,0.3424,0.3464,0.3525,0.3546,0.367,0.3595,0.3674,0.3767,0.3771,0.3782,0.3792,0.3745,0.3751,0.3683,0.3684,0.3684,0,0.301,0.309,0.3069,0.3128,0.3183,0.3212,0.3241,0.3301,0.3415,0.3427,0.3409,0.3508,0.3546,0.3638,0.3699,0.3699,0.3649,0.3682,0.378,0.379,0.3799,0.3749,0.3755,0.3686,0.3686,0.3686,0.3685,0,0.3097,0.3212,0.3252,0.3295,0.3333,0.3432,0.3447,0.3518,0.3537,0.358,0.3652,0.3697,0.3748,0.3779,0.3774,0.3879,0.38,0.3775,0.3716,0.3815,0.3757,0.3762,0.369,0.3689,0.3688,0.3687,0,0,0.3076,0.3248,0.327,0.3315,0.3434,0.3465,0.3582,0.3626,0.3674,0.3768,0.379,0.3914,0.3905,0.3941,0.3945,0.3984,0.401,0.3915,0.3913,0.3827,0.3951,0.3529,0.3493,0.3952,0.3955,0.3957,0.3863,0,0.3123,0.3274,0.3339,0.3491,0.3513,0.3584,0.3667,0.3762,0.3794,0.3844,0.3901,0.3936,0.397,0.397,0.403,0.4019,0.4033,0.4035,0.391,0.3908,0.3484,0.349,0.339,0.3265,0.3867,0.3868,0.3869,0,0.3126,0.3255,0.3365,0.3552,0.3529,0.363,0.3695,0.3789,0.3887,0.3896,0.3964,0.3971,0.4089,0.4062,0.4125,0.4099,0.4055,0.4034,0.4028,0.364,0.3495,0.3282,0.3251,0.3877,0.3876,0.3876,0.3875,0,0.3089,0.3273,0.3373,0.3438,0.3613,0.3654,0.3713,0.3804,0.3823,0.3921,0.3912,0.4033,0.4032,0.4079,0.4033,0.408,0.4002,0.4056,0.3638,0.3606,0.3508,0.3459,0.4079,0.4079,0.4079,0.408,0.408,0,0.3149,0.3237,0.3366,0.3458,0.3506,0.3612,0.3661,0.3739,0.3811,0.3809,0.3923,0.3907,0.4025,0.3973,0.4003,0.3767,0.3969,0.3647,0.3552,0.3503,0.3458,0.4003,0.3995,0.4076,0.4077,0.4078,0.4078,0,0.3139,0.3251,0.3357,0.3501,0.3531,0.3537,0.36,0.3617,0.3712,0.3711,0.3728,0.3789,0.3714,0.3724,0.3723,0.3617,0.3518,0.337,0.325,0.3137,0.3156,0.3153,0.2985,0.2969,0.2956,0.2945,0.2936,0,0.319,0.3261,0.3346,0.3346,0.3414,0.3446,0.3465,0.3556,0.3558,0.3607,0.3578,0.3506,0.3381,0.3157,0.3073,0.2939,0.3102,0.2613,0.2705,0.3118,0.3045,0.3063,0.3077,0.2622,0.2611,0.2602,0.2595,0,0.3274,0.3263,0.3322,0.3323,0.3321,0.3282,0.3319,0.3277,0.3357,0.3338,0.3237,0.3135,0.2927,0.2682,0.2403,0.2345,0.2643,0.2401,0.291,0.2827,0.2743,0.268,0.2715,0.2513,0.2521,0.2527,0.2532,0.2535,0.3282,0.3277,0.3334,0.3274,0.3257,0.3141,0.3022,0.3022,0.2953,0.2819,0.2858,0.26,0.2524,0.2031,0.1897,0.18,0.2007,0.1937,0.1984,0.2036,0.1923,0.181,0.1386,0.1387,0.1389,0.139,0.1391,0,0.3234,0.3259,0.3285,0.3187,0.3058,0.3084,0.2947,0.2756,0.256,0.2452,0.2291,0.1932,0.1692,0.1631,0.1413,0.1273,0.1491,0.1157,0.1539,0.1614,0.1683,0.1572,0.0932,0.093,0.0929,0.0927,0,0,0.3217,0.3173,0.3174,0.3013,0.2936,0.2668,0.2506,0.2267,0.212,0.1789,0.161,0.1578,0.1571,0.126,0.119,0.1041,0.1338,0.0975,0.1354,0.1885,0.1953,0.213,0.2034,0,0,0,0,0]},{"header":{"parameterUnit":"m.s-1","parameterCategory":2,"la1":30.2991,"la2":30.254,"lo1":-89.0895,"lo2":-89.0444,"dy":0.0017,"dx":0.0017,"nx":28,"ny":28,"refTime":"2025-06-08T21:00:00:Z","depth":"2","parameterNumber":3,"parameterNumberName":"V-component_of_CURRENTS"},"data":[0,0,0,0,0,0,0,0,0,0,0,0,0,0,0,0,0,0,0,0,0,0,0,0,0,0,0,0,0,0,0,0,0,0,0,0,0,0,0,0,0,0,0,0,0,0,0,0,0,0,0,0,0,0,0,0,0,0,0.0346,0.0348,0,0.0573,0.0575,0.0578,0.0687,0.0687,0.0686,0.0686,0.0877,0.0882,0.0887,0,0,0,0,0,0,0,0,0,0,0,0,0,0.0219,0.022,0.0345,0.0348,0.0351,0.0572,0.0576,0.0579,0.0687,0.0687,0.0686,0.0686,0.0875,0.0881,0.0888,0,0,0,0,0,0,0,0,0,0,0,0,0,0.0344,0.022,0.0345,0.043,0.044,0.0572,0.0576,0.058,0.0687,0.0687,0.0686,0.0686,0.0873,0.0881,0.0889,0.0946,0,0,0.0913,0.0917,0,0,0,0,0,0,0,0,0.0337,0.0349,0.0415,0.0424,0.0435,0.0599,0.0601,0.07,0.0687,0.0595,0.0686,0.0686,0.078,0.0795,0.0842,0.0955,0.0963,0.0914,0.0919,0.0922,0.0924,0,0,0,0,0,0,0,0.0328,0.0341,0.0438,0.0418,0.043,0.053,0.0545,0.0622,0.0688,0.0603,0.0611,0.0633,0.0785,0.0834,0.0847,0.0966,0.0914,0.0921,0.0926,0.0929,0.1181,0.1183,0,0,0,0,0,0,0.0285,0.0331,0.043,0.0444,0.0382,0.0531,0.0549,0.0549,0.0688,0.0709,0.0634,0.0638,0.0821,0.0838,0.0854,0.0988,0.0922,0.093,0.0934,0.1179,0.1181,0.1184,0,0,0,0,0,0,0.0281,0.029,0.0421,0.0393,0.0416,0.0532,0.0533,0.0553,0.0612,0.0711,0.0731,0.067,0.0821,0.0843,0.0939,0.0993,0.0933,0.0941,0.1177,0.118,0.1182,0.1217,0,0,0,0,0,0,0.0276,0.0287,0.0293,0.0389,0.0416,0.0501,0.0533,0.0558,0.0625,0.0633,0.0749,0.0767,0.0823,0.0927,0.0947,0.1003,0.0947,0.1174,0.1178,0.1182,0.1214,0.1221,0.1227,0,0,0,0,0,0.027,0.029,0.0291,0.0304,0.0412,0.0502,0.0526,0.061,0.0626,0.0659,0.074,0.0763,0.0963,0.0935,0.0958,0.1018,0.1173,0.1177,0.1181,0.1211,0.1219,0.1227,0,0,0,0,0,0,0.0262,0.0305,0.0308,0.0344,0.0409,0.0519,0.0562,0.0611,0.0705,0.0725,0.0794,0.0818,0.0926,0.0959,0.0926,0.1099,0.107,0.1079,0.1084,0.1093,0.11,0.1139,0.0953,0,0,0,0,0,0.0249,0.027,0.0324,0.0363,0.0372,0.0461,0.0513,0.058,0.0667,0.0709,0.0794,0.0881,0.0963,0.1013,0.1096,0.1189,0.1172,0.1239,0.1246,0.1252,0.1299,0.1281,0.1289,0.1198,0.1198,0.1197,0,0,0.0234,0.0291,0.0285,0.0362,0.0408,0.0488,0.0492,0.0583,0.0688,0.0715,0.0871,0.0914,0.0992,0.1107,0.1156,0.1141,0.1261,0.1257,0.1261,0.1307,0.1286,0.1295,0.1302,0.12,0.12,0.1199,0,0,0.0253,0.0272,0.0281,0.0352,0.0448,0.0527,0.0543,0.0656,0.0723,0.0857,0.0906,0.0983,0.1112,0.1192,0.1239,0.1331,0.1296,0.1339,0.1415,0.1395,0.1402,0.1408,0.1354,0.1355,0.1342,0.1342,0.1342,0,0.0257,0.0294,0.0307,0.038,0.0463,0.0536,0.0612,0.0707,0.0862,0.094,0.0911,0.1121,0.1168,0.1317,0.1345,0.1353,0.1308,0.1373,0.1401,0.1408,0.1413,0.1357,0.1357,0.1344,0.1344,0.1344,0.1344,0,0.0248,0.0346,0.0373,0.0484,0.0565,0.0667,0.0775,0.0896,0.0976,0.1071,0.1215,0.1263,0.1389,0.1395,0.1403,0.1491,0.143,0.1404,0.1374,0.1424,0.1361,0.1361,0.1347,0.1347,0.1346,0.1345,0,0,0.0172,0.0327,0.0354,0.0464,0.065,0.0731,0.0908,0.1083,0.1218,0.1315,0.145,0.1558,0.1563,0.1616,0.1615,0.1596,0.1567,0.1515,0.1513,0.1451,0.148,0.1354,0.1341,0.1516,0.1517,0.1519,0.1402,0,0.0199,0.0329,0.0416,0.0637,0.0739,0.0904,0.1072,0.1255,0.1375,0.1529,0.1576,0.1687,0.1649,0.1677,0.1668,0.1616,0.1577,0.16,0.1454,0.1451,0.1323,0.1342,0.1283,0.1168,0.1402,0.1402,0.1402,0,0.0214,0.0323,0.0464,0.078,0.0824,0.0972,0.1264,0.1422,0.1648,0.1722,0.1831,0.1855,0.1918,0.1815,0.1766,0.1769,0.1644,0.1559,0.1551,0.1439,0.1328,0.1167,0.1159,0.1402,0.1402,0.1402,0.1402,0,0.0205,0.0429,0.0548,0.0641,0.0932,0.1067,0.1237,0.149,0.1636,0.1826,0.1892,0.1988,0.1987,0.1906,0.1764,0.1752,0.163,0.1591,0.1361,0.1348,0.1283,0.1262,0.1518,0.1518,0.1518,0.1518,0.1519,0,0.0288,0.0421,0.0555,0.0662,0.087,0.1061,0.1316,0.1498,0.1721,0.1871,0.196,0.2023,0.1992,0.1929,0.18,0.1587,0.166,0.1393,0.1324,0.1287,0.1269,0.1476,0.1472,0.1514,0.1515,0.1516,0.1516,0,0.0315,0.0386,0.0578,0.0812,0.0899,0.104,0.1358,0.1536,0.1712,0.1888,0.1931,0.2041,0.1954,0.1879,0.1724,0.1593,0.1427,0.1311,0.1254,0.1181,0.1146,0.1147,0.1077,0.1072,0.1068,0.1064,0.1061,0,0.0348,0.0423,0.0639,0.0733,0.0851,0.1075,0.1265,0.152,0.1681,0.1875,0.1936,0.1921,0.1882,0.1642,0.1478,0.1253,0.127,0.0999,0.0987,0.1168,0.1108,0.1115,0.1121,0.0894,0.089,0.0887,0.0884,0,0.0437,0.047,0.0605,0.079,0.0962,0.1153,0.1406,0.1502,0.1762,0.1851,0.1908,0.1866,0.1674,0.1448,0.1173,0.1018,0.1056,0.0916,0.1138,0.1009,0.0985,0.0929,0.0944,0.0854,0.0857,0.0859,0.0861,0.0862,0.0485,0.0563,0.0729,0.0901,0.1074,0.1242,0.1357,0.1535,0.1705,0.1783,0.179,0.1666,0.1503,0.1096,0.0914,0.0757,0.0797,0.0679,0.0695,0.0714,0.0708,0.0677,0.0485,0.0486,0.0487,0.0487,0.0488,0,0.0559,0.0664,0.0849,0.1051,0.1205,0.13,0.1485,0.1525,0.1602,0.1628,0.1603,0.1317,0.1089,0.093,0.0662,0.0487,0.0539,0.0406,0.0519,0.0546,0.0571,0.0565,0.0301,0.03,0.03,0.03,0,0,0.06,0.074,0.0849,0.1137,0.1275,0.1419,0.1466,0.1451,0.1465,0.1368,0.1289,0.1235,0.1057,0.0812,0.0617,0.0463,0.0543,0.0416,0.0569,0.0748,0.0775,0.0711,0.0728,0,0,0,0,0]}],[{"header":{"parameterUnit":"m.s-1","parameterCategory":2,"la1":30.2991,"la2":30.254,"lo1":-89.0895,"lo2":-89.0444,"dy":0.0017,"dx":0.0017,"nx":28,"ny":28,"refTime":"2025-06-08T21:00:00:Z","depth":"4","parameterNumber":2,"parameterNumberName":"U-component_of_CURRENTS"},"data":[0,0,0,0,0,0,0,0,0,0,0,0,0,0,0,0,0,0,0,0,0,0,0,0,0,0,0,0,0,0,0,0,0,0,0,0,0,0,0,0,0,0,0,0,0,0,0,0,0,0,0,0,0,0,0,0,0,0,-0.0075,-0.0073,0,0.0075,0.0077,0.0078,0.0288,0.0292,0.0295,0.0299,0.0512,0.0514,0.0516,0,0,0,0,0,0,0,0,0,0,0,0,0,0.0177,0.0169,-0.0075,-0.0073,-0.0071,0.0075,0.0077,0.0079,0.0287,0.0292,0.0296,0.03,0.0511,0.0514,0.0517,0,0,0,0,0,0,0,0,0,0,0,0,0,0.017,0.0166,-0.0075,0.0051,0.0063,0.0074,0.0077,0.0079,0.0286,0.0292,0.0297,0.0302,0.051,0.0514,0.0517,0.0431,0,0,0.0528,0.0529,0,0,0,0,0,0,0,0,0.0169,0.016,0.003,0.0042,0.0056,0.0169,0.0244,0.02,0.0285,0.0201,0.0299,0.0305,0.0399,0.0412,0.0427,0.0441,0.0451,0.0528,0.053,0.0532,0.0533,0,0,0,0,0,0,0,0.0169,0.0157,-0.0016,0.0032,0.0048,0.0222,0.0224,0.0238,0.0269,0.0209,0.0225,0.024,0.0407,0.0423,0.0434,0.0454,0.0528,0.0531,0.0533,0.0535,0.0764,0.0767,0,0,0,0,0,0,0.0124,0.0153,-0.002,-0.0011,0.0128,0.0212,0.0214,0.0127,0.0268,0.0295,0.0235,0.0249,0.0414,0.0429,0.0442,0.0648,0.0532,0.0535,0.0537,0.076,0.0764,0.0769,0,0,0,0,0,0,0.0126,0.0102,-0.0026,0.0084,0.008,0.0199,0.0102,0.0127,0.0215,0.0287,0.0316,0.0307,0.0419,0.0437,0.0587,0.0647,0.0537,0.054,0.0755,0.0761,0.0767,0.0868,0,0,0,0,0,0,0.0131,0.0099,0.0099,0.0075,0.0071,0.0085,0.0098,0.0126,0.0212,0.0234,0.0355,0.0377,0.0425,0.0583,0.0591,0.065,0.0543,0.075,0.0758,0.0765,0.086,0.0877,0.0891,0,0,0,0,0,0.0138,0.0015,0.0094,0.008,0.0033,0.0089,0.0108,0.0214,0.021,0.03,0.039,0.0377,0.0635,0.0589,0.0598,0.0659,0.0746,0.0756,0.0764,0.0853,0.0874,0.0891,0,0,0,0,0,0,0.0111,0.0025,0.0111,-0.0025,0.0113,0.0128,0.0152,0.0227,0.0352,0.0375,0.0426,0.0458,0.062,0.0618,0.0564,0.0752,0.0686,0.0697,0.0751,0.077,0.0786,0.0763,0.0545,0,0,0,0,0,0.0107,0.0005,0.006,-0.0007,0.0015,0.0106,0.0153,0.0256,0.0324,0.0385,0.0496,0.0576,0.064,0.0695,0.0784,0.0855,0.0779,0.0903,0.0919,0.0932,0.0925,0.0959,0.0976,0.0798,0.0798,0.0798,0,0,0.0084,0.0028,-0.0015,-0.0006,0.0044,0.0093,0.0146,0.0222,0.0315,0.0379,0.0543,0.0653,0.0681,0.0821,0.0884,0.0835,0.0917,0.0944,0.0954,0.0939,0.097,0.0987,0.1001,0.0804,0.0803,0.0802,0,0,-0.0009,-0.0072,-0.0129,-0.0056,0.0064,0.0117,0.0152,0.0279,0.0395,0.0567,0.0636,0.0774,0.0901,0.0953,0.096,0.1088,0.1018,0.1153,0.1194,0.1229,0.1242,0.1254,0.1046,0.1038,0.114,0.114,0.114,0,0.0049,-0.0077,-0.0096,-0.0097,-0.0028,0.011,0.0177,0.0256,0.0479,0.0589,0.0652,0.0876,0.0924,0.0999,0.1099,0.1113,0.1084,0.1112,0.1245,0.1256,0.1266,0.1051,0.1042,0.1146,0.1146,0.1145,0.1144,0,-0.0059,-0.0088,-0.0145,-0.0108,-0.002,0.0044,0.017,0.0342,0.0484,0.0614,0.0842,0.0946,0.1074,0.1125,0.1154,0.1272,0.1202,0.1274,0.1183,0.1289,0.1055,0.1043,0.1155,0.1153,0.1151,0.1149,0,0,-0.0074,-0.0172,-0.0163,-0.0098,0.0002,0.0068,0.0186,0.0389,0.049,0.0734,0.0863,0.1027,0.1148,0.1168,0.1244,0.1297,0.1303,0.1361,0.136,0.1122,0.1257,0.1275,0.126,0.1474,0.1476,0.1478,0.1012,0,-0.0052,-0.0091,-0.0121,-0.0032,-0.0016,0.0136,0.0238,0.0443,0.0619,0.0787,0.0895,0.1042,0.1124,0.1231,0.13,0.1339,0.1307,0.1412,0.1216,0.1203,0.119,0.1263,0.1485,0.1003,0.1,0.0997,0.0996,0,-0.009,-0.0106,-0.0061,0.0033,0.0065,0.0159,0.0401,0.053,0.0724,0.0865,0.1013,0.1106,0.1175,0.1263,0.1253,0.1357,0.1321,0.1309,0.1292,0.1279,0.121,0.0913,0.0972,0.0974,0.0976,0.0978,0.0979,0,-0.0075,-0.0044,0.0003,0.0029,0.0138,0.0262,0.0387,0.0599,0.0731,0.0913,0.0994,0.1102,0.1123,0.1176,0.1139,0.125,0.1076,0.1171,0.1074,0.1059,0.1122,0.1117,0.1149,0.1149,0.115,0.1152,0.1153,0,-0.0069,-0.0036,0.002,0.0039,0.0188,0.029,0.0488,0.0629,0.0805,0.0897,0.1033,0.1062,0.116,0.1081,0.1078,0.0983,0.0975,0.1059,0.1006,0.1153,0.1159,0.1101,0.1102,0.1134,0.1138,0.1141,0.1144,0,-0.0092,-0.0079,-0.0032,0.0102,0.0168,0.029,0.0514,0.0657,0.0797,0.0894,0.094,0.1008,0.0958,0.0914,0.0869,0.0847,0.0777,0.0728,0.0675,0.0626,0.0711,0.0723,0.0576,0.0574,0.0573,0.0571,0.057,0,-0.0122,-0.0118,-0.0006,0.0063,0.0132,0.0314,0.0459,0.0658,0.0754,0.0831,0.0836,0.0831,0.0858,0.0681,0.0701,0.0562,0.0633,0.0454,0.0831,0.0721,0.0682,0.0696,0.0709,0.0568,0.0568,0.0567,0.0567,0,-0.0163,-0.0132,-0.0082,0.0036,0.0184,0.0364,0.0535,0.058,0.0747,0.0799,0.0797,0.08,0.0701,0.0686,0.0559,0.05,0.0536,0.0442,0.045,0.0803,0.071,0.0675,0.069,0.0562,0.0562,0.0563,0.0563,0,-0.0179,-0.0151,-0.0089,0.0039,0.0207,0.0403,0.0497,0.0613,0.0728,0.0771,0.0709,0.0703,0.0677,0.0635,0.0508,0.048,0.0572,0.0573,0.0577,0.0582,0.0836,0.0735,0.0539,0,0,0,0,0,-0.0174,-0.0145,-0.0073,0.0066,0.023,0.0382,0.055,0.0629,0.0662,0.0681,0.0734,0.0674,0.064,0.06,0.0595,0.0525,0.0547,0.051,0.0546,0.0533,0.0539,0.0858,0,0,0,0,0,0,-0.0168,-0.0123,-0.0099,0.0084,0.0209,0.0442,0.0599,0.0643,0.0657,0.0646,0.0645,0.0628,0.0607,0.0646,0.0576,0.0563,0.0577,0.0489,0.0488,0.053,0.0535,0.054,0.087,0,0,0,0,0]},{"header":{"parameterUnit":"m.s-1","parameterCategory":2,"la1":30.2991,"la2":30.254,"lo1":-89.0895,"lo2":-89.0444,"dy":0.0017,"dx":0.0017,"nx":28,"ny":28,"refTime":"2025-06-08T21:00:00:Z","depth":"4","parameterNumber":3,"parameterNumberName":"V-component_of_CURRENTS"},"data":[0,0,0,0,0,0,0,0,0,0,0,0,0,0,0,0,0,0,0,0,0,0,0,0,0,0,0,0,0,0,0,0,0,0,0,0,0,0,0,0,0,0,0,0,0,0,0,0,0,0,0,0,0,0,0,0,0,0,0.025,0.025,0,0.0164,0.0162,0.016,0.0026,0.0026,0.0025,0.0024,-0.0045,-0.0046,-0.0047,0,0,0,0,0,0,0,0,0,0,0,0,0,0.0137,0.0139,0.025,0.025,0.0251,0.0164,0.0162,0.0159,0.0027,0.0025,0.0024,0.0023,-0.0045,-0.0046,-0.0047,0,0,0,0,0,0,0,0,0,0,0,0,0,0.0118,0.014,0.025,0.0186,0.018,0.0165,0.0162,0.0158,0.0027,0.0025,0.0024,0.0023,-0.0044,-0.0046,-0.0047,-0.0027,0,0,-0.0051,-0.0052,0,0,0,0,0,0,0,0,0.0119,0.012,0.0195,0.019,0.0184,0.0118,0.0097,0.0103,0.0027,0.0069,0.0024,0.0022,0.0023,0.0016,-0.002,-0.003,-0.0033,-0.0051,-0.0052,-0.0053,-0.0053,0,0,0,0,0,0,0,0.0121,0.0122,0.02,0.0196,0.0189,0.0107,0.0102,0.0096,0.0043,0.0065,0.0059,0.0075,0.0017,-0.0018,-0.0022,-0.0034,-0.0051,-0.0052,-0.0053,-0.0054,-0.0117,-0.0117,0,0,0,0,0,0,0.0174,0.0125,0.0203,0.0199,0.0165,0.0112,0.0106,0.0128,0.0042,0.0032,0.0076,0.0069,-0.0015,-0.002,-0.0025,-0.0043,-0.0053,-0.0054,-0.0055,-0.0116,-0.0117,-0.0118,0,0,0,0,0,0,0.0171,0.0182,0.0207,0.0171,0.0171,0.0118,0.0142,0.0128,0.0103,0.0054,0.004,0.007,-0.0017,-0.0023,-0.0034,-0.0045,-0.0055,-0.0056,-0.0115,-0.0116,-0.0117,-0.0054,0,0,0,0,0,0,0.0168,0.0181,0.0184,0.0176,0.0175,0.0188,0.0145,0.0127,0.0122,0.0111,0.0045,0.0035,-0.0018,-0.0032,-0.0036,-0.0047,-0.0057,-0.0114,-0.0115,-0.0117,-0.0055,-0.0053,-0.0051,0,0,0,0,0,0.0165,0.021,0.0185,0.0194,0.0192,0.019,0.0179,0.0125,0.0124,0.0099,0.0066,0.0038,-0.0046,-0.0032,-0.0037,-0.0049,-0.0113,-0.0115,-0.0117,-0.0056,-0.0054,-0.0051,0,0,0,0,0,0,0.0163,0.0202,0.0174,0.0225,0.0198,0.0173,0.0172,0.0149,0.0102,0.0107,0.0051,0.0039,0.0008,-0.0017,-0.0001,-0.0077,-0.0093,-0.0095,-0.0045,-0.0043,-0.0041,-0.0057,-0.0058,0,0,0,0,0,0.017,0.022,0.0207,0.0248,0.0244,0.021,0.0201,0.0173,0.0154,0.013,0.0088,0.0044,-0.0004,-0.0016,-0.0068,-0.0073,-0.0099,-0.0094,-0.0092,-0.009,-0.0109,-0.0136,-0.0137,-0.0124,-0.0124,-0.0124,0,0,0.0185,0.0219,0.024,0.0251,0.0235,0.0242,0.0196,0.021,0.0208,0.0139,0.0122,0.0056,-0.0007,-0.0049,-0.0064,-0.0065,-0.0106,-0.0093,-0.009,-0.0111,-0.0138,-0.0139,-0.0139,-0.0125,-0.0125,-0.0125,0,0,0.0247,0.0267,0.0303,0.0306,0.0309,0.0285,0.0301,0.0273,0.0237,0.0218,0.0155,0.007,0.0041,-0.0052,-0.0088,-0.0099,-0.01,-0.0088,-0.0077,-0.0101,-0.0102,-0.0103,-0.012,-0.0124,-0.0078,-0.0078,-0.0078,0,0.0239,0.0309,0.0305,0.0344,0.0366,0.032,0.0347,0.0314,0.0279,0.025,0.022,0.0083,0.0013,-0.006,-0.009,-0.01,-0.0081,-0.0073,-0.0096,-0.0098,-0.01,-0.0118,-0.0122,-0.0075,-0.0076,-0.0076,-0.0076,0,0.0323,0.0369,0.0409,0.044,0.0442,0.0481,0.045,0.0425,0.0387,0.033,0.0239,0.0114,0.0032,-0.002,-0.006,-0.0115,-0.0085,-0.009,-0.0092,-0.0097,-0.0116,-0.0121,-0.0071,-0.0072,-0.0073,-0.0074,0,0,0.0347,0.0434,0.0459,0.0479,0.051,0.0525,0.053,0.0487,0.0475,0.0375,0.032,0.0165,0.0091,0.004,-0.0036,-0.01,-0.0127,-0.0083,-0.0085,-0.0085,-0.0134,-0.0097,-0.0099,-0.0087,-0.0088,-0.0089,-0.0133,0,0.0396,0.0494,0.053,0.0607,0.0636,0.0624,0.0632,0.0593,0.0518,0.0446,0.0285,0.0212,0.013,0.0087,0.0011,-0.0121,-0.0139,-0.0114,-0.0146,-0.0149,-0.0101,-0.0105,-0.0092,-0.0137,-0.0139,-0.014,-0.014,0,0.0449,0.0523,0.0617,0.0679,0.0693,0.0747,0.074,0.073,0.0622,0.0557,0.0442,0.0338,0.0182,0.0137,-0.0047,0.0002,-0.004,-0.0137,-0.0139,-0.0137,-0.0122,-0.0141,-0.0151,-0.015,-0.0149,-0.0149,-0.0148,0,0.0452,0.0571,0.0657,0.0697,0.0764,0.0814,0.0834,0.0775,0.0737,0.0643,0.0571,0.042,0.0304,0.0213,0.002,0.0023,-0.0163,-0.0181,-0.018,-0.0178,-0.0224,-0.0223,-0.0237,-0.0237,-0.0237,-0.0236,-0.0236,0,0.0479,0.0547,0.0696,0.0752,0.0849,0.0885,0.0915,0.09,0.0837,0.0732,0.0655,0.0504,0.0327,0.0185,0.0066,-0.0085,-0.0098,-0.019,-0.019,-0.0195,-0.019,-0.0227,-0.0225,-0.0238,-0.0238,-0.0237,-0.0237,0,0.0449,0.054,0.0651,0.0802,0.0851,0.0931,0.0984,0.0964,0.0937,0.0792,0.0772,0.0571,0.0377,0.0237,0.0028,-0.0042,-0.0177,-0.0184,-0.0169,-0.0166,-0.0186,-0.0181,-0.0225,-0.0224,-0.0223,-0.0223,-0.0222,0,0.0434,0.0502,0.0698,0.0771,0.0864,0.0968,0.0997,0.1013,0.0947,0.0763,0.0659,0.0506,0.0349,0.0114,-0.0031,-0.0151,-0.0159,-0.0175,-0.0212,-0.0191,-0.0187,-0.0183,-0.0179,-0.0221,-0.0221,-0.022,-0.022,0,0.0421,0.0516,0.0611,0.0775,0.0878,0.0926,0.0964,0.0923,0.084,0.0804,0.0572,0.0441,0.0231,0.0057,0.0038,-0.0086,-0.0164,-0.0168,-0.0172,-0.0207,-0.0187,-0.0183,-0.018,-0.0218,-0.0218,-0.0218,-0.0219,0,0.0419,0.0475,0.0623,0.0752,0.0863,0.0874,0.0892,0.0828,0.0792,0.0612,0.0496,0.0313,0.0195,0.0086,-0.0007,-0.004,-0.0088,-0.01,-0.0108,-0.0112,-0.0064,-0.0021,-0.0007,0,0,0,0,0,0.0408,0.0456,0.0569,0.0686,0.0792,0.0858,0.0848,0.0832,0.0728,0.0586,0.0568,0.0379,0.0211,0.0102,0.0076,-0.0016,-0.0092,-0.0051,-0.0108,-0.0204,-0.0207,-0.0166,0,0,0,0,0,0,0.0403,0.0501,0.0543,0.0629,0.0691,0.0768,0.0777,0.0707,0.0635,0.053,0.0458,0.0386,0.0249,0.0248,0.0079,0.0052,0.0014,-0.013,-0.013,-0.0202,-0.0205,-0.0207,-0.0167,0,0,0,0,0]}]]